Home   Weather   Lisbon   Past weeks
Flag for Portugal

Past Weather in Lisbon, Portugal — Yesterday and Last 2 Weeks

Now
64 °F

Scattered clouds.


Feels Like: 64 °F
Forecast: 61 / 58 °F
Wind: 10 mph from Southeast

Location: Lisbon Portela Airport

Current Time: Apr 4, 2020 at 5:00:58 pm

Latest Report: Apr 4, 2020 at 4:30 pm


Visibility: N/A

Pressure: 29.83 "Hg

Humidity: 68%

Dew Point: 54 °F

Location of LisbonLocation

Past Weather in Lisbon — Graph

°F

Lisbon Temperature Yesterday

Maximum temperature yesterday: 68 °F (at 2:30 pm)
Minimum temperature yesterday: 46 °F (at 7:30 am)
Average temperature yesterday: 57 °F

High & Low Weather Summary for the Past Weeks

 TemperatureHumidityPressure
High70 °F (Mar 24, 3:00 pm)100% (Mar 21, 5:00 am)30.07 "Hg (Mar 21, 5:00 am)
Low41 °F (Apr 1, 6:00 am)40% (Mar 22, 3:00 pm)29.62 "Hg (Mar 31, 4:00 am)
Average54 °F75%29.90 "Hg
* Reported Mar 20 2:00 pm — Apr 4 3:30 pm, Lisbon. Weather by CustomWeather, © 2020

Note: Actual official high and low records may vary slightly from our data, if they occured in-between our weather recording intervals... More about our weather records

Lisbon Weather History for the Previous 24 Hours

Scroll right to see more
 ConditionsComfort  
Time TempWeatherWind HumidityBarometerVisibility
3:30 pm
Sat, Apr 4
63 °FPassing clouds.10 mph73%29.83 "HgN/A
3:00 pm61 °FPassing clouds.9 mph72%29.83 "HgN/A
2:30 pm61 °FPassing clouds.9 mph77%29.86 "HgN/A
2:00 pm61 °FLight rain. Passing clouds.9 mph77%29.86 "HgN/A
1:30 pm59 °FLight rain. Passing clouds.12 mph72%29.86 "HgN/A
1:00 pm59 °FLight rain. Scattered clouds.12 mph77%29.86 "HgN/A
12:30 pm59 °FPassing clouds.13 mph72%29.86 "HgN/A
12:00 pm57 °FPassing clouds.10 mph72%29.86 "HgN/A
11:30 am57 °FPassing clouds.12 mph72%29.86 "HgN/A
11:00 am57 °FPassing clouds.10 mph72%29.86 "HgN/A
10:30 am55 °FPassing clouds.9 mph77%29.86 "HgN/A
10:00 am54 °FPassing clouds.7 mph82%29.86 "HgN/A
9:30 am52 °FSunny.8 mph88%29.83 "Hg10 mi
9:00 am52 °FSunny.6 mph88%29.83 "Hg10 mi
8:30 am52 °FSunny.3 mph88%29.83 "Hg10 mi
8:00 am52 °FSunny.6 mph88%29.83 "Hg10 mi
7:30 am52 °FSunny.6 mph88%29.83 "Hg10 mi
7:00 am50 °FClear.6 mph88%29.83 "Hg10 mi
6:30 am50 °FClear.3 mph88%29.83 "Hg10 mi
6:00 am50 °FClear.5 mph94%29.83 "Hg10 mi
5:30 am50 °FClear.5 mph88%29.83 "Hg10 mi
5:00 am52 °FClear.5 mph82%29.86 "Hg10 mi
4:30 am50 °FClear.2 mph82%29.86 "Hg10 mi
4:00 am52 °FClear.2 mph77%29.86 "Hg10 mi
3:30 am52 °FClear.2 mph77%29.86 "Hg10 mi
3:00 am52 °FClear.2 mph77%29.86 "Hg10 mi
2:30 am52 °FClear.6 mph77%29.89 "Hg10 mi
2:00 am52 °FClear.6 mph77%29.89 "Hg10 mi
1:30 am54 °FClear.5 mph72%29.89 "Hg10 mi
1:00 am54 °FClear.3 mph67%29.89 "Hg10 mi
12:30 am52 °FClear.3 mph72%29.92 "Hg10 mi
12:00 am52 °FClear.No wind72%29.92 "Hg10 mi
11:30 pm
Fri, Apr 3
54 °FClear.No wind67%29.92 "Hg10 mi
11:00 pm57 °FClear.2 mph55%29.92 "Hg10 mi
10:30 pm59 °FClear.3 mph51%29.92 "Hg10 mi
10:00 pm57 °FClear.3 mph55%29.92 "Hg10 mi
9:30 pm59 °FPassing clouds.3 mph51%29.92 "HgN/A
9:00 pm59 °FClear.5 mph51%29.92 "Hg10 mi
8:30 pm59 °FClear.8 mph51%29.92 "Hg10 mi
8:00 pm61 °FSunny.8 mph48%29.92 "Hg10 mi
7:30 pm63 °FSunny.9 mph42%29.92 "Hg10 mi
7:00 pm64 °FSunny.10 mph40%29.92 "Hg10 mi
6:30 pm66 °FPassing clouds.7 mph40%29.92 "HgN/A
6:00 pm66 °FPassing clouds.7 mph40%29.89 "HgN/A
5:30 pm66 °FSunny.9 mph40%29.92 "Hg10 mi
5:00 pm66 °FPassing clouds.10 mph43%29.92 "HgN/A
Weather by CustomWeather, © 2020

See weather overview

Advertising